This is the latest recevied weather packets stored in our database for station/object DC1MPP-9. If no packets are shown the sender has not sent any weather packets the latest 10 day(s).
| Time | Temp. | Humidity | Pressure | Rain* | Wind** | Luminosity | Snow |
|---|---|---|---|---|---|---|---|
| 1777024758 | 19.44° C | 30% | 963 hPa | - | - | - | - |
| 1777024517 | 19.44° C | 29% | 963 hPa | - | - | - | - |
| 1777024276 | 19.44° C | 31% | 963 hPa | - | - | - | - |
| 1777024035 | 20° C | 34% | 963 hPa | - | - | - | - |
| 1777023794 | 20° C | 34% | 963 hPa | - | - | - | - |
| 1777023553 | 19.44° C | 35% | 963 hPa | - | - | - | - |
| 1777023312 | 18.33° C | 31% | 963 hPa | - | - | - | - |
| 1777023070 | 18.89° C | 32% | 963 hPa | - | - | - | - |
| 1777022829 | 18.89° C | 32% | 963 hPa | - | - | - | - |
| 1777022588 | 18.33° C | 35% | 963 hPa | - | - | - | - |
| 1777022347 | 17.78° C | 33% | 963 hPa | - | - | - | - |
| 1777022106 | 17.78° C | 35% | 963 hPa | - | - | - | - |
| 1777021865 | 17.22° C | 33% | 963 hPa | - | - | - | - |
| 1777021624 | 17.22° C | 34% | 963 hPa | - | - | - | - |
| 1777021383 | 17.22° C | 33% | 963 hPa | - | - | - | - |
| 1777021142 | 17.78° C | 36% | 963 hPa | - | - | - | - |
| 1777020901 | 17.78° C | 34% | 963 hPa | - | - | - | - |
| 1777020660 | 17.22° C | 36% | 963 hPa | - | - | - | - |
| 1777020419 | 17.22° C | 37% | 963 hPa | - | - | - | - |
| 1777020178 | 16.67° C | 38% | 963 hPa | - | - | - | - |
| 1777019937 | 16.67° C | 35% | 963 hPa | - | - | - | - |
| 1777019696 | 16.67° C | 37% | 963 hPa | - | - | - | - |
| 1777019455 | 16.11° C | 39% | 963 hPa | - | - | - | - |
| 1777019214 | 16.11° C | 39% | 963 hPa | - | - | - | - |
| 1777018973 | 15.56° C | 36% | 963 hPa | - | - | - | - |
* Rain since midnight (hover to see other rain measurements)
** Current wind speed in m/s (hover to see current wind gust speed)